• MPC Preparation (Info)

  • MPEC 2017-F106: 2017 FR64

    The following Minor Planet Electronic Circular may be linked-to from your own Web pages, but must not otherwise be redistributed electronically.

    A form allowing access to any MPEC is at the bottom of this page.


    Read MPEC 2017-F105 Read MPEC 2017-F107


    M.P.E.C. 2017-F106                               Issued 2017 Mar. 24, 20:32 UT
    
         The Minor Planet Electronic Circulars contain information on unusual
             minor planets and routine data on comets.  They are published
        on behalf of Division F of the International Astronomical Union by the
              Minor Planet Center, Smithsonian Astrophysical Observatory,
                              Cambridge, MA 02138, U.S.A.
    
                 Prepared using the Tamkin Foundation Computer Network
    
                                  MPC@CFA.HARVARD.EDU
                URL https://www.minorplanetcenter.net/    ISSN 1523-6714
    
                                       2017 FR64
    
    Observations:
         K17F64R* C2017 03 21.34651 12 44 32.512+09 10 25.26         20.7 wLEF106F51
         K17F64R  C2017 03 21.35113 12 44 32.404+09 10 20.51         20.9 wLEF106F51
         K17F64R  C2017 03 21.35793 12 44 32.236+09 10 13.34         20.9 wLEF106F51
         K17F64R  C2017 03 21.36255 12 44 32.122+09 10 08.56         20.8 wLEF106F51
         K17F64R  C2017 03 21.36937 12 44 31.964+09 10 01.51         21.0 wLEF106F51
         K17F64R  C2017 03 21.37399 12 44 31.843+09 09 56.75         21.1 wLEF106F51
         K17F64R  C2017 03 21.38080 12 44 31.668+09 09 49.54         20.8 wLEF106F51
         K17F64R  C2017 03 21.38542 12 44 31.547+09 09 44.85         21.0 wLEF106F51
         K17F64R  C2017 03 22.33103 12 44 18.63 +08 52 39.0          20.9 VqEF106I52
         K17F64R  C2017 03 22.33635 12 44 18.44 +08 52 32.7          20.7 VqEF106I52
         K17F64R  C2017 03 22.34167 12 44 18.31 +08 52 27.0          20.5 VqEF106I52
         K17F64R  C2017 03 22.34854 12 44 18.11 +08 52 19.2          20.5 VqEF106I52
         K17F64R _C2017 03 22.42698612 44 17.787+08 51 02.30         20.7 GUEF106568
         K17F64R _C2017 03 22.42797812 44 17.757+08 51 01.21         20.9 GUEF106568
         K17F64R _C2017 03 22.42896412 44 17.727+08 51 00.15         20.9 GUEF106568
         K17F64R KC2017 03 24.29166 12 43 50.40 +08 16 04.7          20.6 RoEF106691
         K17F64R KC2017 03 24.30285 12 43 50.01 +08 15 51.9          20.9 RoEF106691
         K17F64R KC2017 03 24.31396 12 43 49.69 +08 15 39.1          21.3 RoEF106691
         K17F64R  C2017 03 24.36377 12 43 48.10 +08 14 42.8          20.5 RoEF106926
         K17F64R  C2017 03 24.38120 12 43 47.57 +08 14 22.5          20.5 RoEF106926
         K17F64R  C2017 03 24.39938 12 43 47.02 +08 14 01.4          20.5 RoEF106926
    
    Observer details:
    568 Mauna Kea.  Observers R. J. Wainscoat, R. Weryk, D. Woodworth.  Measurers
        M. Micheli, R. Weryk.  3.6-m Canada-France-Hawaii Telescope + CCD.
    691 Steward Observatory, Kitt Peak.  Observer A. F. Tubbiolo.  0.9-m f/3
        reflector + CCD.
    926 Tenagra II Observatory.  Observers M. Schwartz, P. R. Holvorcem.  Measurer
        M. Schwartz.  0.41-m f/3.75 astrograph + CCD, 0.81-m f/7 Ritchey-Chretien
        + CCD.
    F51 Pan-STARRS 1, Haleakala.  Observers B. Gibson, T. Goggia, S. Kahale,
        T. Lowe, A. Schultz, M. Willman.  Measurers K. Chambers, S. Chastel,
        L. Denneau, H. Flewelling, M. Huber, E. Lilly, E. Magnier, R. Wainscoat,
        C. Waters, R. Weryk.  1.8-m Ritchey-Chretien + CCD.
    I52 Steward Observatory, Mt. Lemmon Station.  Observer A. R. Gibbs.  Measurers
        E. J. Christensen, D. C. Fuls, A. R. Gibbs, A. D. Grauer, J. A. Johnson,
        R. A. Kowalski, S. M. Larson, G. J. Leonard, R. G. Matheny, R. L. Seaman,
        F. C. Shelly.  1.0-m reflector + CCD.
    
    Orbital elements:
    2017 FR64                                                Earth MOID = 0.2082 AU
    Epoch 2017 Feb. 16.0 TT = JDT 2457800.5                 MPC
    M 342.47582              (2000.0)            P               Q
    n   0.48573922     Peri.  153.38765     -0.99695213     +0.06622489
    a   1.6027555      Node    30.49570     -0.07778836     -0.88413717
    e   0.2491203      Incl.    4.66126     +0.00595129     -0.46251024
    P   2.03           H   23.1           G   0.15           U   7
    Residuals in seconds of arc
    170321 F51  0.0   0.0     170321 F51  0.0   0.1+    170322 568  0.2-  0.0
    170321 F51  0.0   0.0     170322 I52  0.4+  0.4+    170324 691  0.4+  0.1-
    170321 F51  0.0   0.1-    170322 I52  0.2-  0.1-    170324 691  0.3-  0.1-
    170321 F51  0.1-  0.0     170322 I52  0.1+  0.0     170324 691  0.0   0.2-
    170321 F51  0.1+  0.0     170322 I52  0.0   0.3-    170324 926  0.1-  0.4+
    170321 F51  0.0   0.0     170322 568  0.2-  0.0     170324 926  0.0   0.2+
    170321 F51  0.0   0.1-    170322 568  0.2-  0.0     170324 926  0.0   0.2+
    
    Ephemeris:
    2017 FR64                a,e,i = 1.60, 0.25, 5                   q = 1.2035
    Date    TT    R. A. (2000) Decl.     Delta      r     Elong.  Phase     V
    2017 02 22    12 34 46.9 +14 25 54   0.2714  1.2260   147.1    26.0    21.9
    ...
    2017 03 09    12 44 10.7 +12 12 15   0.2311  1.2092   157.2    18.5    21.3
    ...
    2017 03 17    12 45 03.2 +10 22 58   0.2177  1.2047   163.0    14.0    21.0
    ...
    2017 03 23    12 44 09.3 +08 40 40   0.2114  1.2035   166.9    10.8    20.8
    2017 03 24    12 43 54.4 +08 21 56   0.2106  1.2035   167.5    10.3    20.8
    2017 03 25    12 43 38.1 +08 02 44   0.2100  1.2035   168.0     9.9    20.8
    ...
    2017 03 31    12 41 42.1 +05 58 22   0.2084  1.2047   169.9     8.3    20.7
    ...
    2017 04 08    12 39 10.4 +02 52 56   0.2118  1.2091   167.9    10.0    20.8
    ...
    2017 04 23    12 38 22.2 -03 14 33   0.2352  1.2257   157.3    18.5    21.3
    
    A. U. Tomatic                (C) Copyright 2017 MPC           M.P.E.C. 2017-F106
    

    Read MPEC 2017-F105 Read MPEC 2017-F107


    MPEC number:

    Enter an MPEC number in one of the following forms:

    • 1997-B01 (the full form)
    • J97B01 (the packed version of the full form)
    • B01 (the abbreviated form)